Current Conditions for Foresthill, CA. Clear skies, Dry   
Visibility: 10 miles
Foresthill Advisory text:

  Summary / Temperature 

Current Temperature
48.7°F
9.3°C
(24/hr Ago)
41.8°F
(Apparent temp)
46.8°F
Cool
Wind Chill Graphs
48.7°F 

48.7°F/ 9.3°C
 --- Virtual Temp: 50.6°F ---

 Temp Rate:

 24/hr Difference:

 Avg Running Temp:

 Todays High:

 Todays Low:

 Y-days High:

 Y-days Low:

 Todays WChill:

 Y-days WChill:

 Evapotranspiration:

-0.6°F/hr 

+6.9°F

49.3°F

60.5°F 3:13pm

40.1°F 6:09am

51.7°F 12:00am

41.6°F 11:50pm

33.1°F 6:57am

36.7°F 11:44pm

12.234 in

115' Above Ground

 Temperature:

 6'AGL VRS 115'AGL:

 Avg Running Temp:

 Humidity:

 Todays High:

 Todays Low:

 Y-days High:

 Y-days Low:

56.0°F 

+7.3°F

56.0°F

0% 

63.0°F 3:31pm

44.0°F 7:55am

55.0°F 12:00am

44.0°F 9:23am

Temp & Humidity Graphs

  Wind 

Wind Speed

 Calm

Gusting to

 None

Calm

355°  

Calm

 Avg speed:

 Wind Run:

 Peak Gust:

Calm 

21.0 miles

  11.0 mph 8:45am

  Almanac  

Moon age: 2 days,7 hours,20 minutes,6%

Waxing Crescent
6%
Illuminated
2 days in cycle

 Moonrise:

 Moonset:

 Sunrise:

 Sunset:

 Solar Noon:

9:00am

7:49pm

7:20am

6:16pm

12:48pm

2min 25s less daylight tomorrow 

  Solar Radiation 

(Current Solar)
  No Sun Light
(Todays High)
 656 W/m2@12:53pm

Rain

 Rain Today:

 Rain Rate (/hr):

 Rain last hour:

 Rain Yesterday:

 This Month:

 Season Total:

1 Day Since Last Dry Day

0.00 in

0.000 in

0.00 in

0.82 in

0.76 in

0.81 in

Updated Time

Updated: 10/21/17  11:29pm

(Updated  sec ago)

Humidity & Barometer

 Humidity:

 Wetbulb:

 Dew Point:

 Barometer:

76% 

45.3°F 

41.5°F 

30.347 inHg 

 Baro Trend:  Steady 
Northern Calif
Preparedness
Fire 
Level 

    UV Index  

(Current UV)
0.0  None
(Todays High) @ 12:41pm
4.5   Medium

National Weather Service Forecast

Tonight

Tonight: Clear
Clear
Sunday

Sunday: Sunny
Sunny
Sunday
Night
Sunday Night: Clear
Clear
Monday

Monday: Sunny
Sunny
Monday
Night
Monday Night: Clear
Clear
Tuesday

Tuesday: Sunny
Sunny
Lo 47 °F Hi 72 °F Lo 58 °F Hi 82 °F Lo 60 °F Hi 82 °F

Foresthill Probe 2 Stats  
Foresthill Probe 2: is located on Thomas Street
at 3000 feet. The main Foresthill Weather site
is located on Melody ln at the 2860 foot elevation

Calm
47.3°F
8.5°C
Temp Rate:
-0.8°F
Calm
Gusting to
None
(Humidity)
78%
Calm
34°  
Updated: 21/10/17 - 23:25:25
 Todays High: 61.4°F 14:44
 Todays Low: 37.7°F 04:57
 Rain Today: 0.01 in
 Season Total: 0.99 in

Foresthill Wx: Monthly,Yearly, Highs and Lows 

Foresthill  
This Weather Data is coming from the main Foresthill
Weather site located on Melody ln at the 2860 foot
elevation
Not Foresthill Probe 2
Weather Data
Month
  High
Month
  Low
Year
High
Year
Low
Temp 79.5°F
10/16/17
40.1°F
10/21/17
100.8°F
8/28/17
27.6°F
2/24/17
Humidity 91%
10/21/17
13%
10/9/17
100%
1/1/17
12%
8/30/17
Heat Index 78.0°F
10/7/17
44.8°F
10/21/17
97.6°F
6/19/17
32.5°F
2/24/17
Wind Chill 79.5°F
10/16/17
33.1°F
10/21/17
100.8°F
8/28/17
14.0°F
2/24/17
Wind Gust 53 mph
10/8/17
0 mph
10/1/17
53 mph
10/8/17
0 mph
1/1/17
Barometer 30.35 in
10/21/17
29.76 in
10/20/17
30.69 in
1/27/17
29.29 in
2/17/17
ET 0.21 in
10/9/17
0.00 in
10/1/17
0.28 in
7/17/17
0.00 in
1/1/17
Dew Point 51.2°F
10/19/17
13.1°F
10/9/17
69.7°F
6/19/17
13.1°F
10/9/17
Pacific Satellite US Radar Satellite Imagery Sacramento,CA.  (click to enlarge)
NWS Weather Forecast - Summary
Updated: Sat Oct 21, 2017 - 2:41pm (PDT)
Current Interstate Highway Conditions for I-80 & US-50

[I 80: IN THE SAN FRANCISCO BAY AREA - SOLANO CO]
no traffic restrictions are reported for this area.

[I 80: IN THE NORTHERN CALIFORNIA AREA & SIERRA NEVADA]
no traffic restrictions are reported for this area.

[US 50: IN THE SACRAMENTO VALLEY & THE LAKE TAHOE BASIN]
westbound traffic is reduced to 1 lane from 1 mi west of riverton /at bridal veil falls rd/ to 3 mi east of pollock pines (EL DORADO CO) - due to a slipout - motorists are subject to delays
NWS Weather Forecast: Tonight and Sunday (Updated: Sat, 21-Oct-2017 2:06pm PDT)
Tonight

Tonight: Clear
Clear

Lo 47 °F
NWS forecast: Clear. Low around 47, with temperatures rising to around 49 overnight. East northeast wind around 5 mph.
Sunday

Sunday: Sunny
Sunny

Hi 72 °F
NWS forecast: Sunny, with a high near 72. North northwest wind 3 to 7 mph.
YR.NO 10 Day Weather forecast
Last update: 10/21/2017 @ 12:31
Next update: 10/22/2017 @ 01:00
Provided by: 22
      Temperature Precipitation Pressure Wind  
Today
10/21/2017
22:00 00:00 43°F   30.27 inHg Light breeze from east-northeast 4 mph
    (Click to enlarge)
meteogram

    Forecast for next 9 days

      Temperature Precip Pressure Wind  
Sunday
10/22/2017
00:00 06:00 39°F   30.27 inHg Light breeze from east-northeast 4 mph
  06:00 12:00 39°F   30.30 inHg Light breeze from east-northeast 5 mph
  12:00 18:00 68°F   30.29 inHg Light breeze from west 6 mph
  18:00 00:00 61°F   30.25 inHg Light air from north-northwest 3 mph
      Temperature Precip Pressure Wind  
Monday
10/23/2017
00:00 06:00 61°F   30.21 inHg Gentle breeze from northeast 9 mph
  06:00 12:00 59°F   30.21 inHg Light air from east-northeast 2 mph
  12:00 18:00 81°F   30.22 inHg Calm from northeast 0 mph
  18:00 00:00 68°F   30.15 inHg Light air from north 2 mph
      Temperature Precip Pressure Wind  
Tuesday
10/24/2017
00:00 06:00 66°F   30.17 inHg Gentle breeze from east-northeast 12 mph
  05:00 11:00 63°F   30.16 inHg Gentle breeze from east-northeast 10 mph
  11:00 17:00 81°F   30.14 inHg Light air from east-southeast 1 mph
  17:00 23:00 77°F   30.07 inHg Light air from west-southwest 2 mph
  23:00 05:00 57°F   30.06 inHg Light breeze from east-northeast 7 mph
      Temperature Precip Pressure Wind  
Wednesday
10/25/2017
05:00 11:00 52°F   30.00 inHg Light breeze from east-northeast 5 mph
  11:00 17:00 79°F   29.96 inHg Light air from southwest 2 mph
  17:00 23:00 75°F   29.85 inHg Light air from west-southwest 2 mph
  23:00 05:00 54°F   29.83 inHg Light breeze from east-northeast 5 mph
      Temperature Precip Pressure Wind  
Thursday
10/26/2017
05:00 11:00 50°F   29.80 inHg Light breeze from east-northeast 6 mph
  11:00 17:00 77°F   29.83 inHg Light air from southwest 2 mph
  17:00 23:00 73°F   29.79 inHg Light air from west-southwest 3 mph
  23:00 05:00 59°F   29.85 inHg Gentle breeze from east-northeast 9 mph
      Temperature Precip Pressure Wind  
Friday
10/27/2017
05:00 11:00 52°F   29.87 inHg Gentle breeze from east-northeast 8 mph
  11:00 17:00 73°F   29.93 inHg Light air from south-southeast 1 mph
  17:00 23:00 70°F   29.91 inHg Light air from west-southwest 3 mph
  23:00 05:00 52°F   29.99 inHg Light breeze from east-northeast 6 mph
      Temperature Precip Pressure Wind  
Saturday
10/28/2017
05:00 11:00 46°F   30.01 inHg Light breeze from east-northeast 5 mph
  11:00 17:00 72°F   30.03 inHg Light air from southwest 3 mph
  17:00 23:00 68°F   29.99 inHg Light air from west-southwest 2 mph
  23:00 05:00 50°F   30.02 inHg Light breeze from east-northeast 6 mph
      Temperature Precip Pressure Wind  
Sunday
10/29/2017
05:00 11:00 48°F   30.02 inHg Light breeze from east-northeast 6 mph
  11:00 17:00 73°F   30.02 inHg Light air from south-southwest 2 mph
  17:00 23:00 70°F   29.98 inHg Light air from west-southwest 3 mph
  23:00 05:00 50°F   30.00 inHg Light breeze from east-northeast 6 mph
      Temperature Precip Pressure Wind  
Monday
10/30/2017
05:00 11:00 48°F   29.97 inHg Light breeze from east-northeast 6 mph
  11:00 17:00 72°F   29.99 inHg Light air from south-southwest 2 mph
  17:00 23:00 70°F   29.93 inHg Light air from west-southwest 2 mph
  23:00 05:00 50°F   29.97 inHg Light breeze from east-northeast 6 mph
How Close Are We To this Month's Temperature Record ?
Updated Saturday, Oct 21, 2017- 11:20:00 PM

Current Temperature: 48.7°F

October's High: Temperature Record 90.8°F - Set on Mon, Oct 1, 2012 - 2:51:00 PM
We are currently 42.1°F Less than this Month's record High

October's Low: Temperature Record 38.8°F - Set on Tue, Oct 23, 2012 - 11:59:00 PM
We are currently 9.9°F More than this Month's record Low

Weather History For Sunday, October 22, 2017


On this Day - In Weather History ...
Data courtesy of weatherforyou.com
powered by Cumulus v1.9.3 (1059)
Ambient Weather VWS v14.00
Top Contact Website Map Copyright © 2007 - 2017 Foresthillweather.com Never base important decisions on this or any weather information obtained from the Internet